Location: Canet
(43.3261°N, 5.3723°E)
Time: 19:37:42
(UTC+00:00)

NOSS 3-1 (C) - Pass Details

Date: 24 January 2021
Orbit: 732 x 1476 km, 63.4° (Epoch: 05 March)

Event Time Altitude Azimuth Distance (km) Brightness Sun altitude
Rises 18:13:06 0° 323° (NW) 3,940 7.0 -16.9°
Reaches altitude 10° 18:15:38 10° 325° (NW) 3,079 6.4 -17.3°
Maximum altitude 18:23:13 78° 53° (NE) 1,345 4.0 -18.7°
Drops below altitude 10° 18:31:59 10° 139° (SE) 3,534 6.1 -20.3°
Sets 18:35:04 0° 141° (SE) 4,551 6.7 -20.8°
